User: anonymous   Login
Location: Newark
(55.5030°N, 22.7200°E)
Time: 22:20:11
(UTC+00:00)
Language:

A-11 Canister half - Orbit

View from above orbital plane
View from above orbital plane
View from above satellite
View from above satellite

Ground track
Ground track

The orbit data is extracted from the following two-line orbital elements,

1    51U 60009C   20144.20924859 -.00000086 +00000-0 -64617-6 0  9997
2    51 047.2139 065.5176 0105684 087.0174 274.2702 12.18272409661019
Epoch (UTC): 23 May 2020 05:01:19
Eccentricity: 0.0105684
inclination: 47.2139°
perigee height: 1516 km
apogee height: 1684 km
right ascension of ascending node: 65.5176°
argument of perigee: 87.0174°
revolutions per day: 12.18272409
mean anomaly at epoch: 274.2702°
orbit number at epoch: 66101

The dashed part of the orbit path shows where the satellite is in the earth's shadow,  

DLR